STARLINK-5094, 53977

Orbit data source: Space-Track

STARLINK-5094, 53977 is a payload satellite owned by SpaceX/Seattle (US) in LEO that was launched on Wed, 05 Oct 2022 UTC via an FALCON 9 launch vehicle from the Air Force Western Test Range (AFWTR). Payload-class satellites include a variety of spacecraft equipped with specific instruments for various scientific and technological missions. These include communications satellites like Starlink; space stations such as the ISS; scientific satellites like the Hubble; Earth observation satellites from companies like Planet Labs, Umbra, and HawkEye 360; GPS; miniature CubeSats for education and research; and military/defense satellites.

Loading next visibility...
Identifier
53977, 2022-125P
Orbit
LEO
Country
Flag of USUS
Related business
Manufacturer
SpaceX/Seattle
Mission
Operational Commercial Communications
Bus & Motor
STARLINK, Unknown motor
Mass
305 kg wet, ~290 kg dry
Launch date (UTC)
2022-10-05 (4 years ago)
Launch vehicle
FALCON 9
Launch site
Air Force Western Test Range (AFWTR)
Object type
Payload
Rocket body
Debris
Shape & HBR
Box + 1 Pan, 10.1 m
Radar Cross Section
13.562 m², Large (>1 m²)

Expand to show TLE details & history
Last TLE update: 3 days ago

TLE from 3 days ago
0 STARLINK-5094
1 53977U 22125P   26170.58640916  .00000414  00000-0  44136-4 0  9999
2 53977  53.1612 121.6918 0001305  86.8218 273.2923 15.08835253204779
Epoch: 2026-06-19T14:04Z
TLE epoch observation values (Epoch: 2026-06-19T14:04:25.751Z)
Latitude
Longitude
2.77125°
Altitude
540.598 km
Speed
7.593 km/s
True Right ascension
08h 06m 46s
True Declination
0° 00' 00"
Sunlit
Object was in daylight at epoch
Visualization orbit readout
Latitude
Unknown
Longitude
Unknown
Altitude
Unknown
Speed
Unknown
Apparent Right ascension
Unknown
Apparent Declination
Unknown
Sunlit
N/A
Visualization observer readout
Local Sidereal Time
21:32:10
Azimuth
Unknown
Elevation
Unknown
Doppler factor
Unknown
Orbital elements
Apogee altitude
540.915 km
Perigee altitude
539.109 km
Semi-major axis
6,918.149 km
Eccentricity
0.00013
Inclination
53.1612°
RAAN
121.6918°
Arg. of periapsis
86.8218°
True anomaly
273.27737°
Mean anomaly
273.2923°
Eccentric anomaly
273.28484°
Mean motion
3.77188 °/min
Orbital period
95.44 mins
BSTAR
0.000044136
Loading maneuver chart data...
Computing Atmospheric mass density...
Loading historical data...
Loading historical data...
Loading historical data...
Loading historical data...
Loading historical data...
Loading historical data...
Loading historical data...

Documentation

Showing up to 5 results
|